FW4396 Weather Reports


time (UTC)temp
C
wind
direction
speed
KPH
gust
KPH
rain 1hr
cm
rain 24hr
cm
rain mn
cm
humidity
%
barometer
mb
20260505041556 15 178 0.0 0.0 0.00 0.00 0.00 65 1009.9
20260505034553 16 178 0.0 1.6 0.00 0.00 0.00 62 1009.8
20260505033052 16 178 0.0 3.2 0.00 0.00 0.00 60 1009.7
20260505031558 16 178 0.0 6.4 0.00 0.00 0.00 58 1009.7
20260505030058 16 170 0.0 6.4 0.00 0.00 0.00 58 1009.5
20260505024553 16 176 1.6 8.0 0.00 0.00 0.00 58 1009.6
20260505023051 16 131 0.0 4.8 0.00 0.00 0.00 59 1009.8
20260505021550 16 161 0.0 3.2 0.00 0.00 0.00 58 1009.8
20260505020051 17 159 0.0 3.2 0.00 0.00 0.00 57 1009.7
20260505014602 17 159 1.6 3.2 0.00 0.00 0.00 56 1009.8
20260505013047 18 185 0.0 4.8 0.00 0.00 0.00 54 1010.0
20260505011551 18 186 0.0 8.0 0.00 0.00 0.00 52 1009.6
20260505010046 18 151 1.6 9.7 0.00 0.00 0.00 52 1009.5
20260505004545 18 167 1.6 11.3 0.00 0.00 0.00 51 1009.1
20260505003044 19 123 1.6 11.3 0.00 0.00 0.00 49 1009.1
20260505001546 20 145 0.0 6.4 0.00 0.00 0.00 48 1009.1
20260505000047 20 116 3.2 11.3 0.00 0.00 0.00 47 1008.8
20260504234542 21 120 3.2 9.7 0.00 0.00 0.00 46 1008.9
20260504233042 21 183 3.2 11.3 0.00 0.00 0.00 44 1008.7
20260504231541 22 177 8.0 17.7 0.00 0.00 0.00 42 1008.6
20260504230046 23 211 8.0 19.3 0.00 0.00 0.00 39 1008.7
20260504224545 23 205 6.4 14.5 0.00 0.00 0.00 39 1008.8
20260504223037 23 220 6.4 16.1 0.00 0.00 0.00 39 1008.8
20260504221538 23 116 8.0 17.7 0.00 0.00 0.00 38 1008.9
20260504220035 23 227 4.8 16.1 0.00 0.00 0.00 38 1008.8
20260504214534 24 226 9.7 19.3 0.00 0.00 0.00 38 1008.9
20260504213034 24 184 4.8 19.3 0.00 0.00 0.00 38 1008.9
20260504211534 24 286 9.7 22.5 0.00 0.00 0.00 37 1008.8
20260504210039 24 293 9.7 19.3 0.00 0.00 0.00 37 1008.8
20260504204546 24 302 8.0 20.9 0.00 0.00 0.00 37 1008.9
20260504203030 24 233 8.0 25.7 0.00 0.00 0.00 36 1009.1
20260504201525 23 215 11.3 19.3 0.00 0.00 0.00 37 1009.3
20260504200023 24 274 6.4 17.7 0.00 0.00 0.00 37 1009.6
20260504194521 23 184 8.0 24.1 0.00 0.00 0.00 38 1009.8
20260504193019 23 196 6.4 19.3 0.00 0.00 0.00 36 1010.1
20260504191517 23 294 6.4 16.1 0.00 0.00 0.00 37 1010.5
20260504190014 23 217 6.4 17.7 0.00 0.00 0.00 37 1010.6
20260504184512 23 290 4.8 20.9 0.00 0.00 0.00 38 1010.8
20260504183011 23 283 9.7 20.9 0.00 0.00 0.00 37 1010.9
20260504181509 23 202 9.7 22.5 0.00 0.00 0.00 38 1011.0
20260504180007 22 197 4.8 14.5 0.00 0.00 0.00 37 1011.1
20260504174507 22 151 4.8 17.7 0.00 0.00 0.00 38 1011.3
20260504173003 22 203 9.7 20.9 0.00 0.00 0.00 39 1011.5
20260504171502 22 225 8.0 20.9 0.00 0.00 0.00 40 1011.8
20260504081509 3 284 0.0 1.6 0.00 0.00 0.00 79 1015.0